Wetterdaten: Samstag, 18.10.2003
Datum Zeit Temp. A Sch. Temp. A Son. Feuchte A. Luftdruck Regen Wind Richtung Richtung Sonnenschein Helligkeit Taupunkt Windchill
18.10.2003 00:00 1,5 C 1,8 C 78 % 1023 hPa 0,0 l/m 0,0 m/s (0 Bft) O-SO 105 0,00 min 0 lux -1,9 C 1,5 C
18.10.2003 00:05 1,5 C 1,6 C 78 % 1023 hPa 0,0 l/m 0,0 m/s (0 Bft) O-SO 105 0,00 min 0 lux -1,9 C 1,5 C
18.10.2003 00:10 1,1 C 1,5 C 79 % 1023 hPa 0,0 l/m 0,0 m/s (0 Bft) O-SO 105 0,00 min 0 lux -2,1 C 1,1 C
18.10.2003 00:15 0,8 C 1,4 C 80 % 1023 hPa 0,0 l/m 0,0 m/s (0 Bft) O-SO 105 0,00 min 0 lux -2,2 C 0,8 C
18.10.2003 00:20 0,6 C 1,4 C 81 % 1023 hPa 0,0 l/m 0,0 m/s (0 Bft) O-SO 105 0,00 min 0 lux -2,3 C 0,6 C
18.10.2003 00:25 0,4 C 1,2 C 81 % 1023 hPa 0,0 l/m 0,0 m/s (0 Bft) O-SO 105 0,00 min 0 lux -2,5 C 0,4 C
18.10.2003 00:30 0,2 C 1,1 C 81 % 1023 hPa 0,0 l/m 0,0 m/s (0 Bft) O-SO 110 0,00 min 0 lux -2,7 C 0,2 C
18.10.2003 00:35 0,1 C 1,0 C 82 % 1023 hPa 0,0 l/m 0,0 m/s (0 Bft) O-SO 110 0,00 min 0 lux -2,6 C 0,1 C
18.10.2003 00:40 0,0 C 1,0 C 82 % 1023 hPa 0,0 l/m 0,0 m/s (0 Bft) O-SO 110 0,00 min 0 lux -2,7 C 0,0 C
18.10.2003 00:45 0,0 C 0,7 C 83 % 1023 hPa 0,0 l/m 0,0 m/s (0 Bft) O-SO 110 0,00 min 0 lux -2,5 C 0,0 C
18.10.2003 00:50 -0,1 C 0,7 C 83 % 1023 hPa 0,0 l/m 0,0 m/s (0 Bft) O-SO 110 0,00 min 0 lux -2,6 C -0,1 C
18.10.2003 00:55 -0,2 C 0,6 C 83 % 1023 hPa 0,0 l/m 0,0 m/s (0 Bft) O-SO 105 0,00 min 0 lux -2,7 C -0,2 C
18.10.2003 01:00 -0,2 C 0,5 C 84 % 1023 hPa 0,0 l/m 0,0 m/s (0 Bft) O-SO 105 0,00 min 0 lux -2,6 C -0,2 C
18.10.2003 01:05 -0,2 C 0,5 C 84 % 1023 hPa 0,0 l/m 0,0 m/s (0 Bft) O-SO 105 0,00 min 0 lux -2,6 C -0,2 C
18.10.2003 01:10 -0,3 C 0,5 C 84 % 1023 hPa 0,0 l/m 0,0 m/s (0 Bft) NO45 50 0,00 min 0 lux -2,7 C -0,3 C
18.10.2003 01:15 -0,3 C 0,4 C 85 % 1023 hPa 0,0 l/m 0,0 m/s (0 Bft) NO 45 0,00 min 0 lux -2,5 C -0,3 C
18.10.2003 01:20 -0,2 C 0,3 C 85 % 1022 hPa 0,0 l/m 0,0 m/s (0 Bft) NO 55 0,00 min 0 lux -2,4 C -0,2 C
18.10.2003 01:25 0,0 C 0,3 C 86 % 1022 hPa 0,0 l/m 0,0 m/s (0 Bft) O-NO 70 0,00 min 0 lux -2,1 C 0,0 C
18.10.2003 01:30 -0,3 C 0,2 C 85 % 1022 hPa 0,0 l/m 0,0 m/s (0 Bft) O-NO 70 0,00 min 0 lux -2,5 C -0,3 C
18.10.2003 01:35 -0,3 C 0,1 C 85 % 1022 hPa 0,0 l/m 0,0 m/s (0 Bft) O-NO 70 0,00 min 0 lux -2,5 C -0,3 C
18.10.2003 01:40 -0,5 C 0,1 C 85 % 1022 hPa 0,0 l/m 0,0 m/s (0 Bft) O-NO 70 0,00 min 0 lux -2,7 C -0,5 C
18.10.2003 01:45 -0,2 C 0,1 C 86 % 1022 hPa 0,0 l/m 0,2 m/s (0 Bft) NO 35 0,00 min 0 lux -2,3 C -0,2 C
18.10.2003 01:50 -0,4 C 0,0 C 86 % 1022 hPa 0,0 l/m 0,0 m/s (0 Bft) NO 40 0,00 min 0 lux -2,4 C -0,4 C
18.10.2003 01:55 -0,5 C -0,1 C 86 % 1022 hPa 0,0 l/m 0,0 m/s (0 Bft) NO 40 0,00 min 0 lux -2,5 C -0,5 C
18.10.2003 02:00 -0,3 C -0,1 C 86 % 1022 hPa 0,0 l/m 0,0 m/s (0 Bft) NO 40 0,00 min 0 lux -2,3 C -0,3 C
18.10.2003 02:05 -0,7 C -0,2 C 86 % 1022 hPa 0,0 l/m 0,0 m/s (0 Bft) NO 40 0,00 min 0 lux -2,7 C -0,7 C
18.10.2003 02:10 -0,6 C -0,2 C 85 % 1022 hPa 0,0 l/m 0,0 m/s (0 Bft) NO 40 0,00 min 0 lux -2,8 C -0,6 C
18.10.2003 02:15 -0,8 C -0,3 C 85 % 1022 hPa 0,0 l/m 0,0 m/s (0 Bft) NO 40 0,00 min 0 lux -3,0 C -0,8 C
18.10.2003 02:20 -0,9 C -0,3 C 85 % 1022 hPa 0,0 l/m 0,0 m/s (0 Bft) NO 40 0,00 min 0 lux -3,1 C -0,9 C
18.10.2003 02:25 -1,0 C -0,4 C 86 % 1022 hPa 0,0 l/m 0,0 m/s (0 Bft) NO 40 0,00 min 0 lux -3,0 C -1,0 C
18.10.2003 02:30 -1,1 C -0,4 C 85 % 1022 hPa 0,0 l/m 0,0 m/s (0 Bft) NO 40 0,00 min 0 lux -3,3 C -1,1 C
18.10.2003 02:35 -1,1 C -0,5 C 85 % 1022 hPa 0,0 l/m 0,0 m/s (0 Bft) NO 40 0,00 min 0 lux -3,3 C -1,1 C
18.10.2003 02:40 -1,0 C -0,6 C 86 % 1022 hPa 0,0 l/m 0,0 m/s (0 Bft) NO 55 0,00 min 0 lux -3,0 C -1,0 C
18.10.2003 02:45 -1,4 C -0,6 C 85 % 1022 hPa 0,0 l/m 0,0 m/s (0 Bft) NO 55 0,00 min 0 lux -3,6 C -1,4 C
18.10.2003 02:50 -1,3 C -0,6 C 85 % 1022 hPa 0,0 l/m 0,0 m/s (0 Bft) NO 55 0,00 min 0 lux -3,5 C -1,3 C
18.10.2003 02:55 -1,4 C -0,7 C 85 % 1022 hPa 0,0 l/m 0,0 m/s (0 Bft) NO 55 0,00 min 0 lux -3,6 C -1,4 C
18.10.2003 03:00 -1,4 C -0,8 C 85 % 1022 hPa 0,0 l/m 0,0 m/s (0 Bft) NO 55 0,00 min 0 lux -3,6 C -1,4 C
18.10.2003 03:05 -1,4 C -0,8 C 85 % 1022 hPa 0,0 l/m 0,0 m/s (0 Bft) NO 55 0,00 min 0 lux -3,6 C -1,4 C
18.10.2003 03:10 -0,7 C -0,9 C 87 % 1021 hPa 0,0 l/m 1,4 m/s (1 Bft) O22.5 90 0,00 min 0 lux -2,6 C -0,7 C
18.10.2003 03:15 -0,4 C -0,9 C 87 % 1021 hPa 0,0 l/m 0,2 m/s (0 Bft) O45 80 0,00 min 0 lux -2,3 C -0,4 C
18.10.2003 03:20 -0,1 C -0,9 C 87 % 1021 hPa 0,0 l/m 1,7 m/s (1 Bft) O22.5 100 0,00 min 0 lux -2,0 C -0,1 C
18.10.2003 03:25 0,0 C -1,0 C 87 % 1021 hPa 0,0 l/m 1,3 m/s (1 Bft) O22.5 90 0,00 min 0 lux -1,9 C 0,0 C
18.10.2003 03:30 0,1 C -1,0 C 86 % 1021 hPa 0,0 l/m 1,6 m/s (1 Bft) O22.5 95 0,00 min 0 lux -2,0 C 0,1 C
18.10.2003 03:35 0,0 C -1,1 C 86 % 1021 hPa 0,0 l/m 0,9 m/s (0 Bft) O 90 0,00 min 0 lux -2,1 C 0,0 C
18.10.2003 03:40 -0,5 C -1,1 C 85 % 1021 hPa 0,0 l/m 0,0 m/s (0 Bft) O-SO 110 0,00 min 0 lux -2,7 C -0,5 C
18.10.2003 03:45 -1,0 C -1,1 C 84 % 1021 hPa 0,0 l/m 0,0 m/s (0 Bft) O-SO 115 0,00 min 0 lux -3,4 C -1,0 C
18.10.2003 03:50 -1,3 C -1,2 C 84 % 1021 hPa 0,0 l/m 0,0 m/s (0 Bft) O-SO 120 0,00 min 0 lux -3,6 C -1,3 C
18.10.2003 03:55 -1,4 C -1,2 C 84 % 1021 hPa 0,0 l/m 0,0 m/s (0 Bft) O-SO 120 0,00 min 0 lux -3,7 C -1,4 C
18.10.2003 04:00 -1,2 C -1,2 C 84 % 1021 hPa 0,0 l/m 0,0 m/s (0 Bft) O-NO 75 0,00 min 0 lux -3,5 C -1,2 C
18.10.2003 04:05 -1,4 C -1,1 C 85 % 1021 hPa 0,0 l/m 0,0 m/s (0 Bft) O-NO 75 0,00 min 0 lux -3,6 C -1,4 C
18.10.2003 04:10 -1,6 C -1,2 C 85 % 1021 hPa 0,0 l/m 0,0 m/s (0 Bft) O-NO 75 0,00 min 0 lux -3,8 C -1,6 C
18.10.2003 04:15 -1,5 C -1,2 C 85 % 1021 hPa 0,0 l/m 0,0 m/s (0 Bft) O-NO 75 0,00 min 0 lux -3,7 C -1,5 C
18.10.2003 04:20 -2,0 C -1,2 C 85 % 1021 hPa 0,0 l/m 0,0 m/s (0 Bft) O-NO 70 0,00 min 0 lux -4,2 C -2,0 C
18.10.2003 04:25 -2,2 C -1,3 C 85 % 1021 hPa 0,0 l/m 0,0 m/s (0 Bft) O-NO 70 0,00 min 0 lux -4,4 C -2,2 C
18.10.2003 04:30 -2,3 C -1,4 C 85 % 1021 hPa 0,0 l/m 0,0 m/s (0 Bft) O-NO 70 0,00 min 0 lux -4,5 C -2,3 C
18.10.2003 04:35 -2,3 C -1,5 C 85 % 1021 hPa 0,0 l/m 0,0 m/s (0 Bft) O-NO 70 0,00 min 0 lux -4,5 C -2,3 C
18.10.2003 04:40 -2,4 C -1,5 C 85 % 1021 hPa 0,0 l/m 0,0 m/s (0 Bft) O-NO 70 0,00 min 0 lux -4,6 C -2,4 C
18.10.2003 04:45 -2,3 C -1,6 C 86 % 1021 hPa 0,0 l/m 0,0 m/s (0 Bft) O-NO 70 0,00 min 0 lux -4,3 C -2,3 C
18.10.2003 04:50 -2,4 C -1,7 C 85 % 1021 hPa 0,0 l/m 0,0 m/s (0 Bft) O-NO 70 0,00 min 0 lux -4,6 C -2,4 C
18.10.2003 04:55 -2,4 C -1,7 C 86 % 1021 hPa 0,0 l/m 0,0 m/s (0 Bft) O-NO 70 0,00 min 0 lux -4,4 C -2,4 C
18.10.2003 05:00 -2,4 C -1,9 C 86 % 1020 hPa 0,0 l/m 0,0 m/s (0 Bft) O-NO 70 0,00 min 0 lux -4,4 C -2,4 C
18.10.2003 05:05 -2,2 C -1,9 C 86 % 1020 hPa 0,0 l/m 0,0 m/s (0 Bft) O-NO 70 0,00 min 0 lux -4,2 C -2,2 C
18.10.2003 05:10 -2,5 C -2,0 C 86 % 1020 hPa 0,0 l/m 0,0 m/s (0 Bft) O-NO 70 0,00 min 0 lux -4,5 C -2,5 C
18.10.2003 05:15 -2,8 C -2,1 C 86 % 1020 hPa 0,0 l/m 0,0 m/s (0 Bft) O-NO 70 0,00 min 0 lux -4,8 C -2,8 C
18.10.2003 05:20 -2,8 C -2,1 C 86 % 1020 hPa 0,0 l/m 0,0 m/s (0 Bft) O-NO 70 0,00 min 0 lux -4,8 C -2,8 C
18.10.2003 05:25 -2,8 C -2,2 C 86 % 1020 hPa 0,0 l/m 0,0 m/s (0 Bft) O-NO 70 0,00 min 0 lux -4,8 C -2,8 C
18.10.2003 05:30 -2,8 C -2,2 C 86 % 1020 hPa 0,0 l/m 0,0 m/s (0 Bft) O-NO 70 0,00 min 0 lux -4,8 C -2,8 C
18.10.2003 05:35 -2,8 C -2,3 C 86 % 1020 hPa 0,0 l/m 0,0 m/s (0 Bft) O-NO 70 0,00 min 0 lux -4,8 C -2,8 C
18.10.2003 05:40 -2,5 C -2,3 C 86 % 1020 hPa 0,0 l/m 0,0 m/s (0 Bft) O-NO 70 0,00 min 0 lux -4,5 C -2,5 C
18.10.2003 05:45 -2,9 C -2,3 C 86 % 1020 hPa 0,0 l/m 0,0 m/s (0 Bft) O67.5 90 0,00 min 0 lux -4,9 C -2,9 C
18.10.2003 05:50 -3,0 C -2,4 C 86 % 1020 hPa 0,0 l/m 0,0 m/s (0 Bft) W-SW22.5 240 0,00 min 0 lux -5,0 C -3,0 C
18.10.2003 05:55 -3,3 C -2,4 C 86 % 1020 hPa 0,0 l/m 0,0 m/s (0 Bft) W-SW22.5 245 0,00 min 0 lux -5,3 C -3,3 C
18.10.2003 06:00 -3,2 C -2,4 C 86 % 1020 hPa 0,0 l/m 0,0 m/s (0 Bft) W 275 0,00 min 0 lux -5,2 C -3,2 C
18.10.2003 06:05 -3,3 C -2,5 C 86 % 1020 hPa 0,0 l/m 0,0 m/s (0 Bft) W 275 0,00 min 0 lux -5,3 C -3,3 C
18.10.2003 06:10 -3,4 C -2,6 C 86 % 1020 hPa 0,0 l/m 0,0 m/s (0 Bft) W 275 0,00 min 0 lux -5,4 C -3,4 C
18.10.2003 06:15 -3,4 C -2,6 C 85 % 1020 hPa 0,0 l/m 0,0 m/s (0 Bft) W 275 0,00 min 0 lux -5,5 C -3,4 C
18.10.2003 06:20 -3,2 C -2,7 C 86 % 1020 hPa 0,0 l/m 0,0 m/s (0 Bft) W 275 0,00 min 0 lux -5,2 C -3,2 C
18.10.2003 06:25 -3,4 C -2,7 C 86 % 1020 hPa 0,0 l/m 0,0 m/s (0 Bft) W 275 0,00 min 0 lux -5,4 C -3,4 C
18.10.2003 06:30 -3,4 C -2,7 C 86 % 1020 hPa 0,0 l/m 0,0 m/s (0 Bft) W 275 0,00 min 0 lux -5,4 C -3,4 C
18.10.2003 06:35 -3,3 C -2,7 C 86 % 1019 hPa 0,0 l/m 0,0 m/s (0 Bft) W 275 0,00 min 0 lux -5,3 C -3,3 C
18.10.2003 06:40 -3,2 C -2,7 C 86 % 1019 hPa 0,0 l/m 0,0 m/s (0 Bft) W 275 0,00 min 0 lux -5,2 C -3,2 C
18.10.2003 06:45 -3,3 C -2,7 C 86 % 1019 hPa 0,0 l/m 0,0 m/s (0 Bft) W 275 0,00 min 0 lux -5,3 C -3,3 C
18.10.2003 06:50 -3,2 C -2,7 C 86 % 1019 hPa 0,0 l/m 0,0 m/s (0 Bft) W 275 0,00 min 0 lux -5,2 C -3,2 C
18.10.2003 06:55 -3,3 C -2,8 C 86 % 1019 hPa 0,0 l/m 0,0 m/s (0 Bft) W 275 0,00 min 0 lux -5,3 C -3,3 C
18.10.2003 07:00 -3,1 C -2,8 C 87 % 1019 hPa 0,0 l/m 0,0 m/s (0 Bft) S-SW67.5 200 0,00 min 0 lux -4,9 C -3,1 C
18.10.2003 07:05 -2,8 C -2,9 C 87 % 1019 hPa 0,0 l/m 0,0 m/s (0 Bft) O-SO 115 0,00 min 0 lux -4,7 C -2,8 C
18.10.2003 07:10 -3,1 C -2,9 C 87 % 1019 hPa 0,0 l/m 0,0 m/s (0 Bft) O-SO 110 0,00 min 0 lux -4,9 C -3,1 C
18.10.2003 07:15 -3,2 C -2,9 C 87 % 1019 hPa 0,0 l/m 0,0 m/s (0 Bft) O-SO 110 0,00 min 0 lux -5,0 C -3,2 C
18.10.2003 07:20 -3,3 C -3,0 C 87 % 1019 hPa 0,0 l/m 0,0 m/s (0 Bft) O-SO 110 0,00 min 0 lux -5,1 C -3,3 C
18.10.2003 07:25 -3,5 C -3,0 C 86 % 1019 hPa 0,0 l/m 0,0 m/s (0 Bft) O-SO 110 0,00 min 0 lux -5,5 C -3,5 C
18.10.2003 07:30 -3,4 C -3,0 C 86 % 1019 hPa 0,0 l/m 0,0 m/s (0 Bft) O-SO 110 0,00 min 0 lux -5,4 C -3,4 C
18.10.2003 07:35 -3,4 C -3,1 C 86 % 1019 hPa 0,0 l/m 0,0 m/s (0 Bft) SO22.5 125 0,00 min 50 lux -5,4 C -3,4 C
18.10.2003 07:40 -3,7 C -3,1 C 86 % 1019 hPa 0,0 l/m 0,0 m/s (0 Bft) SO 140 0,00 min 101 lux -5,7 C -3,7 C
18.10.2003 07:45 -3,8 C -3,2 C 86 % 1019 hPa 0,0 l/m 0,0 m/s (0 Bft) SO 140 0,00 min 188 lux -5,8 C -3,8 C
18.10.2003 07:50 -4,0 C -3,2 C 86 % 1019 hPa 0,0 l/m 0,0 m/s (0 Bft) SO45 125 0,00 min 324 lux -6,0 C -4,0 C
18.10.2003 07:55 -3,6 C -3,2 C 86 % 1019 hPa 0,0 l/m 0,0 m/s (0 Bft) N 5 0,00 min 525 lux -5,6 C -3,6 C
18.10.2003 08:00 -3,5 C -3,2 C 86 % 1019 hPa 0,0 l/m 0,0 m/s (0 Bft) N 0 0,00 min 826 lux -5,5 C -3,5 C
18.10.2003 08:05 -3,5 C -3,2 C 86 % 1019 hPa 0,0 l/m 0,0 m/s (0 Bft) N 10 0,00 min 1,01 klux -5,5 C -3,5 C
18.10.2003 08:10 -3,5 C -3,1 C 86 % 1019 hPa 0,0 l/m 0,0 m/s (0 Bft) N-NO 15 5,00 min 2,94 klux -5,5 C -3,5 C
18.10.2003 08:15 -3,2 C -3,1 C 86 % 1019 hPa 0,0 l/m 0,0 m/s (0 Bft) N-NO 15 5,00 min 5,07 klux -5,2 C -3,2 C
18.10.2003 08:20 -2,8 C -3,1 C 87 % 1019 hPa 0,0 l/m 0,0 m/s (0 Bft) N-NO22.5 25 5,00 min 6,88 klux -4,7 C -2,8 C
18.10.2003 08:25 -2,4 C -3,0 C 87 % 1019 hPa 0,0 l/m 0,0 m/s (0 Bft) O 85 5,00 min 8,82 klux -4,3 C -2,4 C
18.10.2003 08:30 -1,7 C -3,0 C 88 % 1019 hPa 0,0 l/m 0,9 m/s (0 Bft) O-SO 105 5,00 min 10,0 klux -3,4 C -1,7 C
18.10.2003 08:35 -1,7 C -2,9 C 88 % 1019 hPa 0,0 l/m 0,1 m/s (0 Bft) NO45 50 5,00 min 12,9 klux -3,4 C -1,7 C
18.10.2003 08:40 -1,0 C -2,8 C 87 % 1019 hPa 0,0 l/m 1,2 m/s (1 Bft) O22.5 100 5,00 min 15,0 klux -2,9 C -1,0 C
18.10.2003 08:45 -0,6 C -2,7 C 87 % 1019 hPa 0,0 l/m 1,5 m/s (1 Bft) O22.5 100 5,00 min 14,2 klux -2,5 C -0,6 C
18.10.2003 08:50 -0,6 C -2,5 C 86 % 1019 hPa 0,0 l/m 1,4 m/s (1 Bft) O-SO22.5 105 5,00 min 18,9 klux -2,6 C -0,6 C
18.10.2003 08:55 0,0 C -2,4 C 85 % 1019 hPa 0,0 l/m 1,4 m/s (1 Bft) O 100 5,00 min 17,1 klux -2,2 C 0,0 C
18.10.2003 09:00 0,1 C -2,2 C 84 % 1019 hPa 0,0 l/m 1,4 m/s (1 Bft) O 100 5,00 min 20,9 klux -2,3 C 0,1 C
18.10.2003 09:05 0,2 C -2,1 C 84 % 1019 hPa 0,0 l/m 1,8 m/s (1 Bft) O22.5 100 5,00 min 23,6 klux -2,2 C 0,0 C
18.10.2003 09:10 0,7 C -1,9 C 82 % 1019 hPa 0,0 l/m 1,9 m/s (1 Bft) O22.5 100 5,00 min 25,1 klux -2,0 C 0,3 C
18.10.2003 09:15 0,8 C -1,7 C 81 % 1019 hPa 0,0 l/m 2,4 m/s (1 Bft) O-SO22.5 110 5,00 min 27,4 klux -2,1 C -1,3 C
18.10.2003 09:20 1,3 C -1,5 C 79 % 1019 hPa 0,0 l/m 2,4 m/s (1 Bft) O-SO22.5 110 5,00 min 28,7 klux -1,9 C -0,7 C
18.10.2003 09:25 1,4 C -1,2 C 79 % 1018 hPa 0,0 l/m 2,4 m/s (1 Bft) O-SO22.5 115 5,00 min 30,0 klux -1,8 C -0,7 C
18.10.2003 09:30 1,6 C -1,0 C 78 % 1018 hPa 0,0 l/m 2,3 m/s (1 Bft) O-SO22.5 115 5,00 min 31,9 klux -1,8 C -0,1 C
18.10.2003 09:35 1,9 C -0,8 C 78 % 1019 hPa 0,0 l/m 2,4 m/s (1 Bft) O-SO22.5 110 5,00 min 33,4 klux -1,5 C -0,2 C
18.10.2003 09:40 1,8 C -0,7 C 77 % 1019 hPa 0,0 l/m 2,0 m/s (1 Bft) O-SO22.5 115 5,00 min 34,7 klux -1,8 C 1,0 C
18.10.2003 09:45 2,0 C -0,4 C 76 % 1019 hPa 0,0 l/m 1,9 m/s (1 Bft) O-SO22.5 115 5,00 min 36,2 klux -1,8 C 1,5 C
18.10.2003 09:50 2,4 C -0,2 C 74 % 1019 hPa 0,0 l/m 2,1 m/s (1 Bft) O-SO22.5 110 5,00 min 36,5 klux -1,7 C 1,1 C
18.10.2003 09:55 2,5 C 0,1 C 74 % 1018 hPa 0,0 l/m 2,0 m/s (1 Bft) O-SO22.5 115 5,00 min 37,4 klux -1,7 C 1,7 C
18.10.2003 10:00 2,8 C 1,4 C 72 % 1018 hPa 0,0 l/m 3,1 m/s (1 Bft) O-SO22.5 120 5,00 min 38,2 klux -1,7 C -1,1 C
18.10.2003 10:05 3,2 C 3,1 C 70 % 1018 hPa 0,0 l/m 2,4 m/s (1 Bft) O-SO22.5 115 5,00 min 38,8 klux -1,7 C 1,2 C
18.10.2003 10:10 3,2 C 3,9 C 70 % 1018 hPa 0,0 l/m 3,1 m/s (1 Bft) SO22.5 130 5,00 min 40,6 klux -1,7 C -0,8 C
18.10.2003 10:15 3,5 C 5,3 C 70 % 1018 hPa 0,0 l/m 2,7 m/s (1 Bft) SO22.5 125 5,00 min 41,8 klux -1,4 C 0,6 C
18.10.2003 10:20 3,8 C 6,5 C 68 % 1018 hPa 0,0 l/m 3,0 m/s (1 Bft) SO45 125 5,00 min 43,2 klux -1,6 C 0,2 C
18.10.2003 10:25 3,9 C 7,8 C 68 % 1018 hPa 0,0 l/m 3,5 m/s (1 Bft) SO22.5 125 5,00 min 44,1 klux -1,5 C -0,8 C
18.10.2003 10:30 4,3 C 8,4 C 67 % 1018 hPa 0,0 l/m 3,0 m/s (1 Bft) SO22.5 125 5,00 min 45,1 klux -1,3 C 0,7 C
18.10.2003 10:35 4,6 C 9,4 C 63 % 1018 hPa 0,0 l/m 2,9 m/s (1 Bft) O-SO22.5 115 5,00 min 45,9 klux -1,8 C 1,3 C
18.10.2003 10:40 4,7 C 9,9 C 63 % 1018 hPa 0,0 l/m 2,2 m/s (1 Bft) O-SO22.5 110 5,00 min 47,2 klux -1,7 C 3,4 C
18.10.2003 10:45 5,2 C 10,8 C 62 % 1018 hPa 0,0 l/m 2,3 m/s (1 Bft) O-SO22.5 110 5,00 min 47,3 klux -1,5 C 3,7 C
18.10.2003 10:50 5,1 C 11,5 C 60 % 1018 hPa 0,0 l/m 3,1 m/s (1 Bft) SO45 135 5,00 min 48,0 klux -2,0 C 1,4 C
18.10.2003 10:55 5,6 C 12,1 C 58 % 1018 hPa 0,0 l/m 2,9 m/s (1 Bft) O-SO22.5 120 5,00 min 49,9 klux -2,0 C 2,5 C
18.10.2003 11:00 5,8 C 12,4 C 56 % 1018 hPa 0,0 l/m 3,5 m/s (1 Bft) O-SO22.5 105 5,00 min 50,6 klux -2,3 C 1,4 C
18.10.2003 11:05 6,2 C 12,6 C 52 % 1018 hPa 0,0 l/m 4,4 m/s (1 Bft) O-SO22.5 115 5,00 min 51,4 klux -2,9 C 0,2 C
18.10.2003 11:10 6,3 C 13,4 C 51 % 1018 hPa 0,0 l/m 3,8 m/s (1 Bft) O-SO22.5 105 5,00 min 52,4 klux -3,1 C 1,3 C
18.10.2003 11:15 6,7 C 13,6 C 49 % 1018 hPa 0,0 l/m 3,8 m/s (1 Bft) O-SO45 115 5,00 min 53,5 klux -3,2 C 1,7 C
18.10.2003 11:20 6,8 C 13,5 C 47 % 1018 hPa 0,0 l/m 5,6 m/s (1 Bft) O-SO45 105 5,00 min 54,3 klux -3,7 C -1,0 C
18.10.2003 11:25 6,9 C 13,7 C 47 % 1018 hPa 0,0 l/m 6,2 m/s (2 Bft) O45 95 5,00 min 54,6 klux -3,6 C -1,5 C
18.10.2003 11:30 7,0 C 14,2 C 47 % 1018 hPa 0,0 l/m 4,4 m/s (1 Bft) O45 100 5,00 min 55,5 klux -3,5 C 1,0 C
18.10.2003 11:35 7,3 C 14,4 C 47 % 1018 hPa 0,0 l/m 3,0 m/s (1 Bft) O45 95 5,00 min 55,6 klux -3,3 C 4,1 C
18.10.2003 11:40 7,3 C 15,0 C 44 % 1018 hPa 0,0 l/m 5,7 m/s (1 Bft) O-SO45 110 5,00 min 56,4 klux -4,1 C -0,4 C
18.10.2003 11:45 7,4 C 15,5 C 46 % 1018 hPa 0,0 l/m 3,8 m/s (1 Bft) O45 90 5,00 min 57,2 klux -3,4 C 2,7 C
18.10.2003 11:50 7,7 C 16,2 C 47 % 1018 hPa 0,0 l/m 1,4 m/s (1 Bft) O-SO45 115 5,00 min 57,5 klux -2,9 C 7,7 C
18.10.2003 11:55 7,5 C 16,4 C 45 % 1018 hPa 0,0 l/m 5,0 m/s (1 Bft) O-SO45 120 5,00 min 57,9 klux -3,6 C 0,8 C
18.10.2003 12:00 7,6 C 16,7 C 45 % 1018 hPa 0,0 l/m 4,1 m/s (1 Bft) O-SO22.5 115 5,00 min 58,7 klux -3,6 C 2,4 C
18.10.2003 12:05 7,6 C 16,8 C 44 % 1017 hPa 0,0 l/m 4,7 m/s (1 Bft) O-SO45 115 5,00 min 58,9 klux -3,9 C 1,4 C
18.10.2003 12:10 7,8 C 16,9 C 46 % 1017 hPa 0,0 l/m 4,1 m/s (1 Bft) O-SO45 120 5,00 min 59,4 klux -3,1 C 2,6 C
18.10.2003 12:15 8,0 C 17,2 C 45 % 1017 hPa 0,0 l/m 4,0 m/s (1 Bft) SO22.5 130 5,00 min 60,1 klux -3,2 C 3,0 C
18.10.2003 12:20 8,1 C 17,4 C 45 % 1017 hPa 0,0 l/m 3,8 m/s (1 Bft) SO22.5 125 5,00 min 60,3 klux -3,1 C 3,5 C
18.10.2003 12:25 8,1 C 17,6 C 42 % 1017 hPa 0,0 l/m 4,4 m/s (1 Bft) O-SO45 110 5,00 min 60,6 klux -4,0 C 2,5 C
18.10.2003 12:30 8,5 C 17,7 C 43 % 1017 hPa 0,0 l/m 5,1 m/s (1 Bft) O67.5 85 5,00 min 60,9 klux -3,3 C 1,9 C
18.10.2003 12:35 8,6 C 17,5 C 41 % 1017 hPa 0,0 l/m 4,2 m/s (1 Bft) O-NO45 65 5,00 min 61,6 klux -3,9 C 3,3 C
18.10.2003 12:40 8,6 C 17,7 C 42 % 1017 hPa 0,0 l/m 5,9 m/s (2 Bft) O-NO67.5 75 5,00 min 61,2 klux -3,6 C 1,1 C
18.10.2003 12:45 8,7 C 17,7 C 40 % 1017 hPa 0,0 l/m 4,9 m/s (1 Bft) O45 95 5,00 min 61,6 klux -4,1 C 2,5 C
18.10.2003 12:50 8,7 C 17,7 C 40 % 1017 hPa 0,0 l/m 6,1 m/s (2 Bft) O45 100 5,00 min 62,4 klux -4,1 C 1,0 C
18.10.2003 12:55 8,7 C 18,0 C 39 % 1017 hPa 0,0 l/m 5,3 m/s (1 Bft) O-SO45 105 5,00 min 62,8 klux -4,5 C 1,9 C
18.10.2003 13:00 8,9 C 18,0 C 38 % 1017 hPa 0,0 l/m 5,3 m/s (1 Bft) O-SO45 105 5,00 min 62,8 klux -4,6 C 2,2 C
18.10.2003 13:05 8,9 C 18,0 C 38 % 1017 hPa 0,0 l/m 6,3 m/s (2 Bft) O-SO22.5 115 5,00 min 63,3 klux -4,6 C 1,0 C
18.10.2003 13:10 9,1 C 18,1 C 38 % 1017 hPa 0,0 l/m 5,6 m/s (1 Bft) O-SO22.5 110 5,00 min 63,3 klux -4,5 C 2,0 C
18.10.2003 13:15 9,2 C 18,2 C 37 % 1016 hPa 0,0 l/m 5,6 m/s (1 Bft) O67.5 100 5,00 min 63,7 klux -4,7 C 2,2 C
18.10.2003 13:20 9,3 C 18,3 C 37 % 1016 hPa 0,0 l/m 4,7 m/s (1 Bft) O-SO22.5 105 5,00 min 63,6 klux -4,6 C 3,5 C
18.10.2003 13:25 9,6 C 18,9 C 40 % 1016 hPa 0,0 l/m 4,4 m/s (1 Bft) O-SO45 105 5,00 min 63,5 klux -3,3 C 4,2 C
18.10.2003 13:30 9,6 C 19,7 C 40 % 1016 hPa 0,0 l/m 0,2 m/s (0 Bft) NO45 50 5,00 min 63,6 klux -3,3 C 9,6 C
18.10.2003 13:35 9,8 C 20,1 C 40 % 1016 hPa 0,0 l/m 2,1 m/s (1 Bft) O-NO67.5 60 5,00 min 63,0 klux -3,1 C 8,9 C
18.10.2003 13:40 10,1 C 20,5 C 39 % 1016 hPa 0,0 l/m 4,5 m/s (1 Bft) O-NO45 75 5,00 min 62,9 klux -3,2 C 4,7 C
18.10.2003 13:45 10,1 C 19,7 C 40 % 1016 hPa 0,0 l/m 3,0 m/s (1 Bft) O45 90 5,00 min 62,5 klux -2,9 C 7,2 C
18.10.2003 13:50 10,1 C 19,0 C 39 % 1016 hPa 0,0 l/m 4,9 m/s (1 Bft) O67.5 85 5,00 min 63,0 klux -3,2 C 4,2 C
18.10.2003 13:55 10,2 C 18,0 C 39 % 1016 hPa 0,0 l/m 2,1 m/s (1 Bft) O45 80 5,00 min 62,1 klux -3,1 C 9,3 C
18.10.2003 14:00 10,4 C 16,1 C 38 % 1016 hPa 0,0 l/m 6,1 m/s (2 Bft) O45 90 5,00 min 62,0 klux -3,3 C 3,2 C
18.10.2003 14:05 10,3 C 15,1 C 37 % 1015 hPa 0,0 l/m 4,0 m/s (1 Bft) O-NO67.5 70 5,00 min 62,0 klux -3,7 C 5,7 C
18.10.2003 14:10 10,4 C 14,8 C 36 % 1015 hPa 0,0 l/m 5,7 m/s (1 Bft) O22.5 100 5,00 min 61,6 klux -4,0 C 3,7 C
18.10.2003 14:15 10,4 C 15,8 C 36 % 1015 hPa 0,0 l/m 7,8 m/s (2 Bft) O45 90 5,00 min 61,1 klux -4,0 C 1,6 C
18.10.2003 14:20 10,7 C 17,0 C 37 % 1015 hPa 0,0 l/m 3,1 m/s (1 Bft) O-NO45 70 5,00 min 61,1 klux -3,4 C 7,8 C
18.10.2003 14:25 10,8 C 17,3 C 35 % 1015 hPa 0,0 l/m 6,1 m/s (2 Bft) O67.5 80 5,00 min 60,6 klux -4,0 C 3,8 C
18.10.2003 14:30 10,8 C 17,9 C 33 % 1015 hPa 0,0 l/m 6,1 m/s (2 Bft) O45 95 5,00 min 60,0 klux -4,8 C 3,8 C
18.10.2003 14:35 10,9 C 18,4 C 33 % 1015 hPa 0,0 l/m 6,6 m/s (2 Bft) O45 90 5,00 min 59,6 klux -4,7 C 3,3 C
18.10.2003 14:40 11,1 C 18,7 C 31 % 1015 hPa 0,0 l/m 5,3 m/s (1 Bft) O45 100 5,00 min 58,9 klux -5,4 C 5,0 C
18.10.2003 14:45 11,1 C 18,9 C 32 % 1015 hPa 0,0 l/m 6,5 m/s (2 Bft) O-SO22.5 110 5,00 min 58,7 klux -5,0 C 3,8 C
18.10.2003 14:50 11,1 C 19,2 C 33 % 1015 hPa 0,0 l/m 6,7 m/s (2 Bft) O-SO22.5 105 5,00 min 56,4 klux -4,5 C 3,6 C
18.10.2003 14:55 11,1 C 19,5 C 33 % 1015 hPa 0,0 l/m 6,7 m/s (2 Bft) O67.5 95 5,00 min 57,1 klux -4,5 C 3,6 C
18.10.2003 15:00 11,4 C 19,7 C 35 % 1015 hPa 0,0 l/m 5,6 m/s (1 Bft) O45 100 5,00 min 56,3 klux -3,5 C 5,1 C
18.10.2003 15:05 11,5 C 20,0 C 33 % 1015 hPa 0,0 l/m 6,6 m/s (2 Bft) O45 85 5,00 min 55,5 klux -4,2 C 4,2 C
18.10.2003 15:10 11,4 C 20,0 C 34 % 1015 hPa 0,0 l/m 6,9 m/s (2 Bft) O-SO22.5 110 5,00 min 54,5 klux -3,9 C 3,8 C
18.10.2003 15:15 11,5 C 20,2 C 35 % 1015 hPa 0,0 l/m 5,3 m/s (1 Bft) O67.5 80 5,00 min 54,1 klux -3,4 C 5,5 C
18.10.2003 15:20 11,6 C 20,4 C 31 % 1015 hPa 0,0 l/m 7,3 m/s (2 Bft) O45 85 5,00 min 53,2 klux -4,9 C 3,7 C
18.10.2003 15:25 11,7 C 20,6 C 32 % 1014 hPa 0,0 l/m 6,7 m/s (2 Bft) O45 85 5,00 min 52,5 klux -4,4 C 4,4 C
18.10.2003 15:30 11,8 C 20,6 C 31 % 1014 hPa 0,0 l/m 7,8 m/s (2 Bft) O45 90 5,00 min 52,0 klux -4,8 C 3,6 C
18.10.2003 15:35 11,7 C 20,9 C 30 % 1014 hPa 0,0 l/m 6,1 m/s (2 Bft) O45 95 5,00 min 51,3 klux -5,3 C 4,9 C
18.10.2003 15:40 11,7 C 21,0 C 30 % 1014 hPa 0,0 l/m 6,6 m/s (2 Bft) O67.5 95 5,00 min 49,9 klux -5,3 C 4,4 C
18.10.2003 15:45 11,8 C 21,3 C 31 % 1014 hPa 0,0 l/m 4,9 m/s (1 Bft) O45 85 5,00 min 49,2 klux -4,8 C 6,3 C
18.10.2003 15:50 11,6 C 21,7 C 30 % 1014 hPa 0,0 l/m 5,2 m/s (1 Bft) O67.5 85 5,00 min 48,4 klux -5,4 C 5,8 C
18.10.2003 15:55 12,0 C 21,6 C 30 % 1014 hPa 0,0 l/m 6,4 m/s (2 Bft) O-SO22.5 110 5,00 min 47,6 klux -5,0 C 5,0 C
18.10.2003 16:00 11,8 C 21,7 C 31 % 1014 hPa 0,0 l/m 4,9 m/s (1 Bft) O45 95 5,00 min 46,3 klux -4,8 C 6,3 C
18.10.2003 16:05 11,7 C 21,5 C 31 % 1014 hPa 0,0 l/m 5,4 m/s (1 Bft) O-NO67.5 70 5,00 min 45,8 klux -4,8 C 5,7 C
18.10.2003 16:10 11,8 C 21,5 C 32 % 1014 hPa 0,0 l/m 4,8 m/s (1 Bft) O45 95 5,00 min 44,7 klux -4,3 C 6,4 C
18.10.2003 16:15 11,7 C 21,6 C 31 % 1014 hPa 0,0 l/m 4,7 m/s (1 Bft) O67.5 90 5,00 min 43,4 klux -4,8 C 6,5 C
18.10.2003 16:20 11,8 C 21,4 C 30 % 1014 hPa 0,0 l/m 5,7 m/s (1 Bft) O-SO22.5 105 5,00 min 41,6 klux -5,2 C 5,5 C
18.10.2003 16:25 11,7 C 21,2 C 31 % 1014 hPa 0,0 l/m 6,1 m/s (2 Bft) O-SO45 105 5,00 min 41,3 klux -4,8 C 4,9 C
18.10.2003 16:30 11,7 C 21,0 C 31 % 1014 hPa 0,0 l/m 5,9 m/s (2 Bft) O-SO22.5 115 5,00 min 39,6 klux -4,8 C 5,2 C
18.10.2003 16:35 11,8 C 20,9 C 32 % 1014 hPa 0,0 l/m 4,2 m/s (1 Bft) O-SO22.5 110 5,00 min 38,8 klux -4,3 C 7,3 C
18.10.2003 16:40 11,7 C 20,9 C 34 % 1014 hPa 0,0 l/m 3,1 m/s (1 Bft) O-SO45 105 5,00 min 36,9 klux -3,6 C 8,8 C
18.10.2003 16:45 11,6 C 20,9 C 35 % 1014 hPa 0,0 l/m 5,0 m/s (1 Bft) O45 85 5,00 min 35,7 klux -3,3 C 6,0 C
18.10.2003 16:50 11,6 C 20,5 C 36 % 1014 hPa 0,0 l/m 5,1 m/s (1 Bft) O45 95 5,00 min 33,7 klux -2,9 C 5,8 C
18.10.2003 16:55 11,5 C 20,2 C 37 % 1014 hPa 0,0 l/m 4,6 m/s (1 Bft) O45 90 5,00 min 33,2 klux -2,7 C 6,3 C
18.10.2003 17:00 11,4 C 19,9 C 37 % 1014 hPa 0,0 l/m 4,3 m/s (1 Bft) O45 90 5,00 min 31,9 klux -2,8 C 6,6 C
18.10.2003 17:05 11,3 C 18,8 C 37 % 1014 hPa 0,0 l/m 3,7 m/s (1 Bft) O-NO67.5 75 5,00 min 30,3 klux -2,8 C 7,5 C
18.10.2003 17:10 11,3 C 17,2 C 38 % 1014 hPa 0,0 l/m 0,3 m/s (0 Bft) NO67.5 55 5,00 min 28,6 klux -2,5 C 11,3 C
18.10.2003 17:15 11,1 C 17,2 C 38 % 1014 hPa 0,0 l/m 3,9 m/s (1 Bft) O45 90 5,00 min 27,1 klux -2,7 C 6,9 C
18.10.2003 17:20 11,0 C 15,5 C 37 % 1014 hPa 0,0 l/m 2,8 m/s (1 Bft) O-NO45 70 5,00 min 25,4 klux -3,1 C 8,7 C
18.10.2003 17:25 10,7 C 14,6 C 39 % 1014 hPa 0,0 l/m 2,9 m/s (1 Bft) O-NO45 60 5,00 min 23,5 klux -2,7 C 8,2 C
18.10.2003 17:30 10,5 C 14,3 C 39 % 1014 hPa 0,0 l/m 3,2 m/s (1 Bft) O-NO45 75 5,00 min 19,6 klux -2,9 C 7,4 C
18.10.2003 17:35 10,5 C 13,5 C 38 % 1014 hPa 0,0 l/m 3,7 m/s (1 Bft) O45 95 5,00 min 20,1 klux -3,2 C 6,5 C
18.10.2003 17:40 10,4 C 12,9 C 39 % 1014 hPa 0,0 l/m 1,8 m/s (1 Bft) O45 100 5,00 min 16,6 klux -2,9 C 10,4 C
18.10.2003 17:45 10,2 C 12,3 C 39 % 1014 hPa 0,0 l/m 2,3 m/s (1 Bft) O45 85 5,00 min 12,2 klux -3,1 C 9,0 C
18.10.2003 17:50 10,0 C 12,3 C 40 % 1014 hPa 0,0 l/m 1,8 m/s (1 Bft) O22.5 95 5,00 min 14,9 klux -3,0 C 10,0 C
18.10.2003 17:55 9,8 C 11,6 C 40 % 1014 hPa 0,0 l/m 1,9 m/s (1 Bft) O22.5 95 5,00 min 13,0 klux -3,1 C 9,4 C
18.10.2003 18:00 9,6 C 11,2 C 41 % 1014 hPa 0,0 l/m 2,3 m/s (1 Bft) O-SO45 115 5,00 min 10,5 klux -3,0 C 8,2 C
18.10.2003 18:05 9,6 C 10,9 C 40 % 1014 hPa 0,0 l/m 2,9 m/s (1 Bft) O22.5 95 5,00 min 8,27 klux -3,3 C 7,0 C
18.10.2003 18:10 9,5 C 10,7 C 40 % 1013 hPa 0,0 l/m 3,9 m/s (1 Bft) O67.5 90 5,00 min 6,66 klux -3,4 C 4,9 C
18.10.2003 18:15 8,9 C 10,2 C 42 % 1013 hPa 0,0 l/m 2,1 m/s (1 Bft) O22.5 85 5,00 min 3,91 klux -3,3 C 8,1 C
18.10.2003 18:20 8,5 C 10,0 C 44 % 1013 hPa 0,0 l/m 1,9 m/s (1 Bft) O22.5 90 0,00 min 1,54 klux -3,0 C 8,3 C
18.10.2003 18:25 8,2 C 9,6 C 45 % 1013 hPa 0,0 l/m 1,3 m/s (1 Bft) O-NO45 75 0,00 min 955 lux -3,0 C 8,2 C
18.10.2003 18:30 8,0 C 9,4 C 46 % 1014 hPa 0,0 l/m 2,7 m/s (1 Bft) NO67.5 50 0,00 min 583 lux -2,9 C 5,5 C
18.10.2003 18:35 7,7 C 8,8 C 49 % 1014 hPa 0,0 l/m 2,8 m/s (1 Bft) O-NO45 70 0,00 min 353 lux -2,3 C 4,9 C
18.10.2003 18:40 7,6 C 8,8 C 50 % 1014 hPa 0,0 l/m 1,3 m/s (1 Bft) O-NO22.5 70 0,00 min 269 lux -2,1 C 7,6 C
18.10.2003 18:45 7,3 C 8,4 C 52 % 1014 hPa 0,0 l/m 1,8 m/s (1 Bft) O-NO22.5 65 0,00 min 160 lux -1,9 C 7,2 C
18.10.2003 18:50 7,2 C 8,2 C 52 % 1014 hPa 0,0 l/m 1,8 m/s (1 Bft) O45 85 0,00 min 93 lux -2,0 C 7,2 C
18.10.2003 18:55 7,3 C 8,0 C 52 % 1014 hPa 0,0 l/m 2,1 m/s (1 Bft) O22.5 95 0,00 min 42 lux -1,9 C 6,3 C
18.10.2003 19:00 7,3 C 7,7 C 52 % 1014 hPa 0,0 l/m 2,9 m/s (1 Bft) O22.5 90 0,00 min 19 lux -1,9 C 4,2 C
18.10.2003 19:05 7,1 C 7,5 C 53 % 1014 hPa 0,0 l/m 1,9 m/s (1 Bft) O22.5 85 0,00 min 11 lux -1,8 C 6,6 C
18.10.2003 19:10 7,0 C 7,2 C 54 % 1014 hPa 0,0 l/m 1,7 m/s (1 Bft) O22.5 100 0,00 min 6 lux -1,7 C 7,0 C
18.10.2003 19:15 7,0 C 7,1 C 54 % 1014 hPa 0,0 l/m 1,5 m/s (1 Bft) O22.5 100 0,00 min 0 lux -1,7 C 7,0 C
18.10.2003 19:20 6,5 C 7,0 C 56 % 1014 hPa 0,0 l/m 1,6 m/s (1 Bft) O 100 0,00 min 0 lux -1,6 C 6,5 C
18.10.2003 19:25 6,0 C 6,6 C 57 % 1014 hPa 0,0 l/m 2,3 m/s (1 Bft) O22.5 90 0,00 min 0 lux -1,9 C 4,4 C
18.10.2003 19:30 6,3 C 6,5 C 57 % 1014 hPa 0,0 l/m 2,8 m/s (1 Bft) O22.5 95 0,00 min 0 lux -1,6 C 3,4 C
18.10.2003 19:35 6,7 C 6,3 C 57 % 1014 hPa 0,0 l/m 3,5 m/s (1 Bft) O45 95 0,00 min 0 lux -1,2 C 2,4 C
18.10.2003 19:40 6,4 C 6,1 C 56 % 1014 hPa 0,0 l/m 2,3 m/s (1 Bft) O45 100 0,00 min 0 lux -1,7 C 5,0 C
18.10.2003 19:45 6,3 C 6,1 C 56 % 1014 hPa 0,0 l/m 3,8 m/s (1 Bft) O-SO22.5 105 0,00 min 0 lux -1,8 C 1,3 C
18.10.2003 19:50 6,3 C 6,0 C 56 % 1014 hPa 0,0 l/m 2,7 m/s (1 Bft) O-SO22.5 105 0,00 min 0 lux -1,8 C 3,8 C
18.10.2003 19:55 6,4 C 5,9 C 56 % 1014 hPa 0,0 l/m 3,3 m/s (1 Bft) O-SO22.5 105 0,00 min 0 lux -1,7 C 2,5 C
18.10.2003 20:00 6,3 C 5,8 C 56 % 1014 hPa 0,0 l/m 3,6 m/s (1 Bft) O45 95 0,00 min 0 lux -1,8 C 1,8 C
18.10.2003 20:05 6,3 C 5,7 C 55 % 1014 hPa 0,0 l/m 4,1 m/s (1 Bft) O-SO22.5 105 0,00 min 0 lux -2,1 C 0,8 C
18.10.2003 20:10 6,2 C 5,6 C 55 % 1014 hPa 0,0 l/m 2,7 m/s (1 Bft) O-SO22.5 105 0,00 min 0 lux -2,2 C 3,6 C
18.10.2003 20:15 6,2 C 5,5 C 55 % 1014 hPa 0,0 l/m 4,4 m/s (1 Bft) O-SO22.5 110 0,00 min 0 lux -2,2 C 0,1 C
18.10.2003 20:20 6,2 C 5,5 C 55 % 1014 hPa 0,0 l/m 3,5 m/s (1 Bft) O-SO22.5 105 0,00 min 0 lux -2,2 C 1,7 C
18.10.2003 20:25 6,0 C 5,5 C 55 % 1014 hPa 0,0 l/m 5,3 m/s (1 Bft) O45 100 0,00 min 0 lux -2,3 C -1,5 C
18.10.2003 20:30 5,9 C 5,4 C 55 % 1014 hPa 0,0 l/m 4,9 m/s (1 Bft) O-SO22.5 105 0,00 min 0 lux -2,4 C -1,0 C
18.10.2003 20:35 5,9 C 5,3 C 55 % 1014 hPa 0,0 l/m 2,1 m/s (1 Bft) O22.5 100 0,00 min 0 lux -2,4 C 5,0 C
18.10.2003 20:40 5,8 C 5,3 C 56 % 1014 hPa 0,0 l/m 3,1 m/s (1 Bft) O45 95 0,00 min 0 lux -2,3 C 2,2 C
18.10.2003 20:45 5,4 C 5,2 C 56 % 1014 hPa 0,0 l/m 2,5 m/s (1 Bft) O45 90 0,00 min 0 lux -2,7 C 3,2 C
18.10.2003 20:50 5,5 C 5,1 C 56 % 1014 hPa 0,0 l/m 2,8 m/s (1 Bft) O45 85 0,00 min 0 lux -2,6 C 2,7 C
18.10.2003 20:55 5,3 C 5,1 C 56 % 1014 hPa 0,0 l/m 1,9 m/s (1 Bft) O-NO22.5 75 0,00 min 0 lux -2,8 C 5,1 C
18.10.2003 21:00 5,1 C 5,0 C 57 % 1014 hPa 0,0 l/m 2,3 m/s (1 Bft) O22.5 90 0,00 min 0 lux -2,7 C 3,5 C
18.10.2003 21:05 5,2 C 4,9 C 57 % 1014 hPa 0,0 l/m 2,4 m/s (1 Bft) O22.5 90 0,00 min 0 lux -2,6 C 3,3 C
18.10.2003 21:10 5,2 C 4,9 C 57 % 1014 hPa 0,0 l/m 2,6 m/s (1 Bft) O22.5 90 0,00 min 0 lux -2,6 C 2,7 C
18.10.2003 21:15 5,2 C 4,8 C 58 % 1014 hPa 0,0 l/m 3,7 m/s (1 Bft) O45 80 0,00 min 0 lux -2,4 C 0,2 C
18.10.2003 21:20 5,2 C 4,8 C 58 % 1014 hPa 0,0 l/m 4,9 m/s (1 Bft) O45 90 0,00 min 0 lux -2,4 C -1,9 C
18.10.2003 21:25 5,2 C 4,8 C 58 % 1014 hPa 0,0 l/m 4,8 m/s (1 Bft) O67.5 90 0,00 min 0 lux -2,4 C -1,7 C
18.10.2003 21:30 4,8 C 4,7 C 60 % 1014 hPa 0,0 l/m 2,4 m/s (1 Bft) O22.5 90 0,00 min 0 lux -2,3 C 2,7 C
18.10.2003 21:35 5,0 C 4,6 C 60 % 1014 hPa 0,0 l/m 4,3 m/s (1 Bft) O45 80 0,00 min 0 lux -2,1 C -1,1 C
18.10.2003 21:40 5,0 C 4,6 C 60 % 1014 hPa 0,0 l/m 4,4 m/s (1 Bft) O45 90 0,00 min 0 lux -2,1 C -1,3 C
18.10.2003 21:45 4,8 C 4,5 C 61 % 1014 hPa 0,0 l/m 2,8 m/s (1 Bft) O-NO45 75 0,00 min 0 lux -2,1 C 1,9 C
18.10.2003 21:50 4,7 C 4,5 C 62 % 1014 hPa 0,0 l/m 3,8 m/s (1 Bft) O45 85 0,00 min 0 lux -1,9 C -0,6 C
18.10.2003 21:55 4,7 C 4,4 C 62 % 1014 hPa 0,0 l/m 4,4 m/s (1 Bft) O67.5 80 0,00 min 0 lux -1,9 C -1,7 C
18.10.2003 22:00 4,8 C 4,4 C 63 % 1014 hPa 0,0 l/m 3,3 m/s (1 Bft) O45 85 0,00 min 0 lux -1,6 C 0,7 C
18.10.2003 22:05 4,5 C 4,4 C 63 % 1014 hPa 0,0 l/m 2,8 m/s (1 Bft) O-NO22.5 70 0,00 min 0 lux -1,9 C 1,4 C
18.10.2003 22:10 4,5 C 4,3 C 64 % 1014 hPa 0,0 l/m 1,9 m/s (1 Bft) O22.5 95 0,00 min 0 lux -1,7 C 4,0 C
18.10.2003 22:15 4,3 C 4,2 C 64 % 1014 hPa 0,0 l/m 2,2 m/s (1 Bft) O67.5 100 0,00 min 0 lux -1,9 C 3,0 C
18.10.2003 22:20 4,2 C 4,1 C 65 % 1014 hPa 0,0 l/m 0,0 m/s (0 Bft) O-SO22.5 110 0,00 min 0 lux -1,8 C 4,2 C
18.10.2003 22:25 3,4 C 3,9 C 66 % 1014 hPa 0,0 l/m 0,0 m/s (0 Bft) O22.5 95 0,00 min 0 lux -2,3 C 3,4 C
18.10.2003 22:30 3,2 C 3,7 C 67 % 1014 hPa 0,0 l/m 0,0 m/s (0 Bft) O-SO 115 0,00 min 0 lux -2,3 C 3,2 C
18.10.2003 22:35 3,1 C 3,7 C 69 % 1014 hPa 0,0 l/m 0,0 m/s (0 Bft) O-SO 115 0,00 min 0 lux -2,0 C 3,1 C
18.10.2003 22:40 2,8 C 3,5 C 71 % 1014 hPa 0,0 l/m 0,0 m/s (0 Bft) O-SO 115 0,00 min 0 lux -1,9 C 2,8 C
18.10.2003 22:45 2,5 C 3,3 C 71 % 1014 hPa 0,0 l/m 0,0 m/s (0 Bft) O-SO 115 0,00 min 0 lux -2,2 C 2,5 C
18.10.2003 22:50 2,4 C 3,2 C 72 % 1014 hPa 0,0 l/m 0,0 m/s (0 Bft) O-SO 115 0,00 min 0 lux -2,1 C 2,4 C
18.10.2003 22:55 2,4 C 3,2 C 73 % 1014 hPa 0,0 l/m 0,0 m/s (0 Bft) O-SO22.5 105 0,00 min 0 lux -1,9 C 2,4 C
18.10.2003 23:00 2,4 C 3,0 C 73 % 1014 hPa 0,0 l/m 0,0 m/s (0 Bft) O-NO45 70 0,00 min 0 lux -1,9 C 2,4 C
18.10.2003 23:05 2,6 C 2,9 C 73 % 1014 hPa 0,0 l/m 0,0 m/s (0 Bft) O22.5 85 0,00 min 0 lux -1,7 C 2,6 C
18.10.2003 23:10 2,5 C 2,8 C 73 % 1014 hPa 0,0 l/m 0,0 m/s (0 Bft) O 85 0,00 min 0 lux -1,8 C 2,5 C
18.10.2003 23:15 2,7 C 2,7 C 74 % 1014 hPa 0,0 l/m 0,1 m/s (0 Bft) O 85 0,00 min 0 lux -1,5 C 2,7 C
18.10.2003 23:20 2,7 C 2,6 C 74 % 1014 hPa 0,0 l/m 0,0 m/s (0 Bft) O 95 0,00 min 0 lux -1,5 C 2,7 C
18.10.2003 23:25 2,6 C 2,5 C 73 % 1014 hPa 0,0 l/m 0,0 m/s (0 Bft) O-SO 105 0,00 min 0 lux -1,7 C 2,6 C
18.10.2003 23:30 1,9 C 2,4 C 74 % 1014 hPa 0,0 l/m 0,0 m/s (0 Bft) O-SO 115 0,00 min 0 lux -2,2 C 1,9 C
18.10.2003 23:35 1,6 C 2,3 C 75 % 1014 hPa 0,0 l/m 0,0 m/s (0 Bft) O-SO 120 0,00 min 0 lux -2,3 C 1,6 C
18.10.2003 23:40 1,6 C 2,2 C 77 % 1014 hPa 0,0 l/m 0,0 m/s (0 Bft) O 100 0,00 min 0 lux -2,0 C 1,6 C
18.10.2003 23:45 1,4 C 2,1 C 77 % 1013 hPa 0,0 l/m 0,0 m/s (0 Bft) O 95 0,00 min 0 lux -2,2 C 1,4 C
18.10.2003 23:50 1,5 C 1,9 C 77 % 1013 hPa 0,0 l/m 0,0 m/s (0 Bft) O-SO 105 0,00 min 0 lux -2,1 C 1,5 C
18.10.2003 23:55 1,2 C 1,8 C 78 % 1013 hPa 0,0 l/m 0,0 m/s (0 Bft) O-SO 110 0,00 min 0 lux -2,2 C 1,2 C
_ Min-Zeit 07:50 07:45 15:35 18:10 - 00:00 - - - - 07:50 07:50
Minimum _ -4,0 C -3,2 C 30 % 1013 hPa - 0,0 m/s (0 Bft) - - - - -6,0 C -4,0 C
_ Max-Zeit 15:55 15:50 08:30 00:00 00:00 14:15 - - 08:10 13:15 19:35 17:10
Maximum _ 12,0 C 21,7 C 88 % 1023 hPa 0,0 l/m 7,8 m/s
O (4 Bft)
- - 5,00 min 63,7 klux -1,2 C 11,3 C
Durchschnitt _ 3,8 C 6,3 C 64 % 1018 hPa #0,0 l/m 2,1 m/s (2 Bft) O - #10:10 h 18,3 klux -3,2 C 1,6 C